• Join FlightAware (Why Join?)
  • Login
  • US Flag 
05:35PM EDT


 

Airport Tracker/Info


-or-


 

Live Flight TrackerFlight Track Log ✈ USC250 ✈ 07-Jun-2013 ✈ KPHL - KBWI

Flight Track Log - Related Links

Times and Time Zones

All times are in EDT time to prevent confusion due to time zone crossing. See the USC250 flight status page for this flight to view local times or setup timezone preferences in your user account.

Time Position Orientation Groundspeed Altitude Reporting Facility
EDT Latitude Longitude Course Direction KTS MPH feet Rate Location/Type
06:03AM 39.8667 -75.1667 113° Southeast 105 121 2,100  Level Philadelphia TRACON
06:04AM 39.8667 -75.1333 90° East 118 136 3,100 960 Climbing Philadelphia TRACON
06:05AM 39.8333 -75.1333 180° South 117 135 4,000 420 Climbing Philadelphia TRACON
06:06AM 39.8000 -75.1167 159° South 159 183 4,000  Level Philadelphia TRACON
06:07AM 39.7667 -75.1667 229° Southwest 161 185 4,100  Climbing Philadelphia TRACON
06:08AM 39.7167 -75.2000 207° Southwest 166 191 4,100  Level Philadelphia TRACON
06:09AM 39.6833 -75.2333 218° Southwest 166 191 4,100 -60 Level Philadelphia TRACON
06:10AM 39.6500 -75.2833 229° Southwest 164 189 4,000 -60 Descending Philadelphia TRACON
06:11AM 39.6333 -75.3500 252° West 177 204 4,000  Level Philadelphia TRACON
06:12AM 39.6167 -75.4000 247° West 169 194 4,000  Level Philadelphia TRACON
06:13AM 39.6000 -75.4500 247° West 172 198 4,000  Level Philadelphia TRACON
06:14AM 39.5833 -75.5167 252° West 171 197 4,000  Level Philadelphia TRACON
06:15AM 39.5667 -75.5667 219° Southwest 165 190 4,100  Climbing Philadelphia TRACON
06:16AM 39.5333 -75.6167 229° Southwest 166 191 4,000 -120 Descending Philadelphia TRACON
06:17AM 39.5167 -75.7000 255° West 166 191 3,900  Descending Potomac TRACON
06:19AM 39.4973 -75.7559 270° West  Level Estimated
06:19AM 39.4833 -75.8167 270° West 164 189 4,000  Level Potomac TRACON
06:20AM 39.4667 -75.8667 247° West 163 188 4,000  Level Potomac TRACON
06:21AM 39.4333 -75.9167 229° Southwest 161 185 4,000  Level Potomac TRACON
06:22AM 39.4167 -75.9667 247° West 160 184 4,000  Level Potomac TRACON
06:23AM 39.4167 -76.0167 270° West 164 189 4,000  Level Potomac TRACON
06:24AM 39.4167 -76.0833 270° West 162 186 4,000  Level Potomac TRACON
06:25AM 39.4000 -76.1333 247° West 163 188 4,000  Level Potomac TRACON
06:26AM 39.4000 -76.2000 270° West 160 184 4,000  Level Potomac TRACON
06:27AM 39.3833 -76.2500 247° West 159 183 4,000  Level Potomac TRACON
06:28AM 39.3833 -76.3000 270° West 162 186 4,000  Level Potomac TRACON
06:29AM 39.3833 -76.3500 270° West 161 185 4,000  Level Potomac TRACON
06:30AM 39.3667 -76.4000 247° West 159 183 4,000  Level Potomac TRACON
06:31AM 39.3667 -76.4667 270° West 158 182 4,000  Level Potomac TRACON
06:32AM 39.3667 -76.5167 270° West 159 183 4,000  Level Potomac TRACON
06:33AM 39.3500 -76.5667 247° West 160 184 4,000  Level Potomac TRACON
06:34AM 39.3500 -76.6167 270° West 163 188 4,000  Level Potomac TRACON
06:35AM 39.3333 -76.6667 247° West 159 183 4,000  Level Potomac TRACON
06:36AM 39.3333 -76.7167 270° West 156 180 4,000  Level Potomac TRACON
06:37AM 39.3333 -76.7833 270° West 157 181 4,000  Level Potomac TRACON
06:38AM 39.3167 -76.8333 247° West 150 173 4,000 -120 Level Potomac TRACON
06:39AM 39.3000 -76.8833 247° West 159 183 3,800 -420 Descending Potomac TRACON
06:40AM 39.2500 -76.9000 194° South 165 190 3,200 -600 Descending Potomac TRACON
06:41AM 39.2167 -76.9167 201° Southwest 153 176 2,700 -600 Descending Potomac TRACON
06:42AM 39.1833 -76.8833 142° Southeast 174 200 2,100 -540 Descending Potomac TRACON
06:43AM 39.1833 -76.8333 90° East 165 190 1,700 -420 Descending Potomac TRACON